STARLINK-11249, 60728

Orbit data source: Space-Track

STARLINK-11249, 60728 is a payload satellite owned by SpaceX/Seattle (US) in LEO that was launched on Wed, 28 Aug 2024 UTC via an FALCON 9 launch vehicle from the Air Force Eastern Test Range (AFETR). Payload-class satellites include a variety of spacecraft equipped with specific instruments for various scientific and technological missions. These include communications satellites like Starlink; space stations such as the ISS; scientific satellites like the Hubble; Earth observation satellites from companies like Planet Labs, Umbra, and HawkEye 360; GPS; miniature CubeSats for education and research; and military/defense satellites.

Loading next visibility...
Identifier
60728, 2024-152J
Orbit
LEO
Last TLE update
12 hours ago
Origin
Manufacturer
SpaceX/Seattle
Mission
Operational Commercial Communications
Bus & Motor
STARLINK V2M, Unknown motor
Mass
730 kg wet, ~700 kg dry
Launch date (UTC)
2024-08-28 (10 months ago)
Launch vehicle
FALCON 9
Launch site
Air Force Eastern Test Range (AFETR)
Object type
Payload
Rocket body
Debris
Shape & HBR
Box + 2 Pan, 29 m
Radar Cross Section
36.964 m², Large (>1 m²)

Expand to show TLE details & history

TLE from 12 hours ago
0 STARLINK-11249
1 60728U 24152J   25188.86021276 -.00000439  00000-0  12369-5 0  9996
2 60728  53.1604 243.0409 0001513  82.0643 278.0546 15.69710970 50382
Epoch: 2025-07-07T20:38Z
TLE epoch observation values (Epoch: 2025-07-07T20:38:42.382Z)
Latitude
-0.00007°
Longitude
7.30076°
Altitude
360.496 km
Speed
7.694 km/s
True Right ascension
16h 12m 09s
True Declination
0° 00' 00"
Sunlit
Object was in full shadow at epoch
Visualization orbit readout
Latitude
-47.41697°
Longitude
-49.31131°
Altitude
376.808 km
Speed
7.683 km/s
Apparent Right ascension
10h 29m 11s
Apparent Declination
-47° 10' 24"
Sunlit
Object is in daylight
Visualization observer readout
Local Sidereal Time
20:40:56
Azimuth
240.627° WSW
Elevation
-69.212°
Doppler factor
1
Orbital elements
Apogee altitude
361.004 km
Perigee altitude
358.965 km
Semi-major axis
6,738.122 km
Eccentricity
0.00015
Inclination
53.1604°
RAAN
243.0409°
Arg. of periapsis
82.0643°
True anomaly
Unknown
Mean anomaly
278.0546°
Eccentric anomaly
Unknown
Mean motion
3.92405 °/min
Orbital period
91.74 mins
BSTAR
0.0000012369
Loading maneuver chart data...
Loading SW <> Apogee altitude chart data...
Loading historical data...
Loading historical data...
Loading historical data...
Loading historical data...
Loading historical data...
Loading historical data...
Loading historical data...

STARLINK-11249 Visibility forecast

Observer location: undefined°, undefined°

Span
Click to sort rows by Start time (UTC) header in descending order
Start Az.
Max El. time (UTC)
Max El. Az.
Max El.
End time (UTC)
End Az.
5 mins2025-07-08 12:23:12.196Z331.42° NNW2025-07-08 12:26:12.196Z49.255° ENE22.764°2025-07-08 12:28:12.196Z90.84° ESE
4 mins2025-07-09 06:28:12.196Z251.156° W2025-07-09 06:30:12.196Z337.245° NNW37.909°2025-07-09 06:32:12.196Z37.406° NE
|